Regional Weather Roundup
Issued by NWS

Home | Current Version | Previous Version | Text Only | Print | Product List | Glossary Off
Versions: 1 2 3 4 5 6 7 8 9 10 11 12 13 14 15 16 17 18 19 20 21 22 23 24 25 26 27 28 29 30 31 32 33 34 35 36 37 38 39 40 41 42 43 44 45 46 47 48 49

000
ASUS45 KBOU 010407
RWRCO

WEATHER ROUNDUP FOR COLORADO
NATIONAL WEATHER SERVICE DENVER/BOULDER CO
900 PM MST SAT FEB 28 2015

NOTE: "FAIR" INDICATES FEW OR NO CLOUDS BELOW 12000 FEET WITH NO
SIGNIFICANT WEATHER AND/OR OBSTRUCTIONS TO VISIBILITY.

COZ001>005-013-030-031-010500-
...NORTHWEST COLORADO...

CITY           SKY/WX    TMP DP  RH WIND       PRES   REMARKS
CRAIG          LGT SNOW  29  27  92 W6        29.84R FOG     WCI  23
HAYDEN         CLOUDY    28  25  86 CALM      29.82R
MEEKER         CLOUDY    29  26  89 CALM      29.81S
MOUNT WERNER   NOT AVBL
STEAMBOAT SPGS CLOUDY    26  25  96 CALM      29.81R
WALDEN         CLOUDY    18  14  86 N7        29.81R WCI   8
$$

COZ006>008-011-010500-
...WEST CENTRAL VALLEYS...

CITY           SKY/WX    TMP DP  RH WIND       PRES   REMARKS
GRAND JUNCTION PTCLDY    33  30  88 SE7       29.85R WCI  27
MONTROSE       MOCLDY    34  31  88 S13       29.90R WCI  25
EAGLE          FLURRIES  30  28  93 E6        29.86R WCI  24
RIFLE          CLOUDY    34  25  69 CALM      29.84R
DELTA          CLOUDY    37  34  90 NE5       29.89R
NUCLA          LGT SNOW  32  32 100 W7        29.94R VSB 1   WCI  26
$$

COZ017>023-064>068-010500-
...SOUTHWEST COLORADO...

CITY           SKY/WX    TMP DP  RH WIND       PRES   REMARKS
DURANGO        LGT SNOW  30  29  96 E5        29.93R FOG     WCI  25
CORTEZ         FOG       27  26  96 CALM      29.92R VSB 1/4
PAGOSA SPRINGS CLOUDY    29  29 100 CALM      29.93R
TELLURIDE      FLURRIES  28  21  74 W7        29.92R WCI  21
WOLF CREEK PAS HVY SNOW  16  16 100 SW35G59   29.88R VSB 1/4 WCI  -6
$$

COZ009-010-012-014-032>034-037-058>063-010500-
...CENTRAL COLORADO...

CITY           SKY/WX    TMP DP  RH WIND       PRES   REMARKS
ASPEN          LGT SNOW  27  26  96 N3        29.82R FOG
BUENA VISTA    LGT SNOW  23  20  89 E6        29.87R WCI  15
COPPER MTN     LGT SNOW  18  10  73 SW7       29.80R WCI   8
BERTHOUD PASS  LGT SNOW  10   3  72 W9        29.80S VSB 1   WCI  -2
COTTONWOOD PAS LGT SNOW  23  19  86 CALM      29.84R VSB 1
GUNNISON       CLOUDY    25  21  86 W3        29.90R
KREMMLING      FLURRIES  21  18  86 SE5       29.83R WCI  15
LEADVILLE      LGT SNOW  17  15  92 S8        29.82R FOG     WCI   7
SALIDA         CLOUDY    22  16  79 SE9       29.95R WCI  11
SUNLIGHT       HVY SNOW  21  19  93 CALM        N/A  VSB 1/4
WILKERSON PASS LGT SNOW  16  12  86 SW6       29.84S WCI   7
$$

COZ069>075-010500-
...SAN LUIS VALLEY/SANGRE DE CRISTO MOUNTAINS...

CITY           SKY/WX    TMP DP  RH WIND       PRES   REMARKS
ALAMOSA        PTCLDY    23  19  85 N5        29.90R WCI  17
LA VETA PASS   CLOUDY    23  21  93 S14G28    29.87S FOG     WCI  11
SAGUACHE       CLOUDY    23  19  86 NW6       29.91R WCI  16
$$

COZ035-036-038>040-010500-
...NORTHERN COLORADO FRONT RANGE...

CITY           SKY/WX    TMP DP  RH WIND       PRES   REMARKS
DENVER INTL AP MOCLDY    17  10  74 SW5       29.99S WCI  10
DMNS CITY PARK   N/A     18  12  76 E7        30.00R WCI   9
AURORA         MOCLDY    14   9  82 SE2       29.99R
FRONT RANGE AP NOT AVBL
ERIE MUNI ARPT MOCLDY    18  16  91 CALM      30.00S
BOULDER MUN AP MOCLDY    21  21 100 CALM      29.99S FOG
CENTENNIAL     MOCLDY    15   9  76 S5        29.98R WCI   8
BROOMFIELD     MOCLDY    19  14  79 CALM      29.98S
FORT COLLINS   MOCLDY    21  12  68 CALM      30.02F
LONGMONT       MOCLDY    23  20  91 CALM      30.02F FOG
$$

COZ041-046-047-076>085-087-088-010500-
...PIKES PEAK/PALMER DIVIDE AND SOUTHERN FOOTHILLS...

CITY           SKY/WX    TMP DP  RH WIND       PRES   REMARKS
COLO. SPRINGS  LGT SNOW  16  13  88 SW3       29.98R FOG
A. F. ACADEMY  CLOUDY    15  12  86 S7        29.95R WCI   5
ELLICOTT       NOT AVBL
FALCON         PTCLDY    10   9  94 W5        29.94R FOG     WCI   2
FORT CARSON    PTCLDY    14  11  87 CALM      29.97S
LIMON          CLOUDY    15  11  83 NE6       30.00R WCI   6
MONUMENT HILL  MOCLDY     9   5  85 SW7       29.92S WCI  -3
TRINIDAD       CLOUDY    18  15  88 E7        30.00R WCI   9
$$

COZ042>045-048>051-090-091-010500-
...NORTHEAST COLORADO...

CITY           SKY/WX    TMP DP  RH WIND       PRES   REMARKS
GREELEY ARPT   MOCLDY    21  10  63 E8        30.00F WCI  12
AKRON          MOCLDY    18  15  88 E6        30.05R WCI  10
BURLINGTON     CLOUDY    18  12  77 S6        30.09R WCI  10
WRAY           CLOUDY    22  14  73 E7        30.11F WCI  13
STERLING       CLOUDY    23  18  80 CALM      30.07R
HOLYOKE        NOT AVBL
FORT MORGAN    PTCLDY    21  15  78 E5        30.05S WCI  15
$$

COZ086-089-092>099-010500-
...SOUTHEAST COLORADO...

CITY           SKY/WX    TMP DP  RH WIND       PRES   REMARKS
PUEBLO         PTCLDY    18  13  80 SW3       30.04F
LA JUNTA       PTCLDY    16  12  84 CALM      30.09R
LAMAR          MOCLDY    19  17  92 E5        30.09R WCI  12
SPRINGFIELD      N/A     19  16  88 N6        30.07R WCI  11
$$


USA.gov is the U.S. government's official web portal to all federal, state and local government web resources and services.